Weather in Novodanilovka

Ukraine / Zaporizhia Region     46°39′02″N   35°01′05″E
temp.,
°C
wind,
m/s
gust,
m/s
humid.,
%
clouds,
%
prec.,
mm/h
press.,
hPa
HPBL,
m
2 july, sat
sat200:00+20nne411510 0.0 1015214
03:00+18nne410640 0.0 1015209
06:00+18nne510670 0.0 1016291
09:00+22ne78410 0.0 1018990
12:00+25ne56230 0.0 10191635
15:00+27n55180 0.0 10181975
18:00+26n66210 0.0 10181888
21:00+20nne47370 0.0 1019100
3 july, sun
sun300:00+17ne46500 0.0 102096
03:00+16nne34570 0.0 102047
06:00+16nne35640 0.0 1020116
09:00+23nne45465 0.0 10191099
12:00+27n45300 0.0 10192092
15:00+29n55255 0.0 10172319
18:00+28n56256 0.0 10172113
21:00+22nne34375 0.0 101738
4 july, mon
mon400:00+21nne3347100 0.0 101724
03:00+19nne335433 0.0 101737
06:00+19nne23573 0.0 101749
09:00+26nne33370 0.0 1017817
12:00+30nne33282 0.0 10172447
15:00+32n34242 0.0 10153029
18:00+32nne652728 0.0 10142615
21:00+25ne12430 0.0 101517
5 july, tue
tue500:00+22n22500 0.0 101614
03:00+21ne34580 0.0 101660
06:00+21nne33600 0.0 101667
09:00+28ene33370 0.0 1016656
12:00+32e44270 0.0 10162966
15:00+31sse753536 0.0 10151039
18:00+29sse4438100 0.0 1015781
21:00+24sse35490 0.0 101685
6 july, wed
wed600:00+22sse22510 0.0 101613
03:00+21ne22510 0.0 101612
06:00+21ene36520 0.0 1017104
09:00+29ese55310 0.0 1016734
12:00+31se66250 0.0 10162152
15:00+32se65220 0.0 10152391
18:00+31sse54250 0.0 10151462
21:00+24sse22370 0.0 101511